Wind_Speed
22 21 20 20 20 19 19 19 18 18 17 16 16 16 16 16 16 16 16 16 16 16 16 15 15 15 15 16 16 16 16 16 16 16 16 16 16 16 16 16 16 16 17 17 17 17 17 18 18 18 18 19 19 19 19 20 20 21 21 22 22 23 23 23 24 24 24 24 24 24 24 25 25 25 25 25 25 24 24 24 24 23 23 22 22 22
22 21 20 19 19 19 19 18 17 17 16 16 15 15 15 15 15 16 16 16 16 16 16 16 16 16 16 16 16 16 16 16 16 16 16 16 16 16 16 16 17 17 17 17 18 18 18 18 19 19 19 19 19 20 20 20 20 21 21 22 22 23 23 24 24 25 25 25 25 25 25 26 26 26 26 26 26 26 26 25 25 24 24 24 23 23
21 20 19 19 19 19 18 17 16 16 16 15 15 15 15 15 15 16 16 16 16 16 16 16 16 16 16 16 17 17 17 16 16 16 16 16 16 16 17 17 17 17 18 18 18 19 19 19 19 20 20 20 20 21 21 21 21 22 22 23 23 23 24 24 25 25 25 26 26 26 26 26 27 27 27 27 27 27 27 27 26 26 26 25 25 24
20 20 19 19 18 18 17 17 16 15 15 15 15 15 15 15 15 16 16 16 16 16 16 17 17 16 16 17 17 17 17 17 17 17 17 17 17 17 17 18 18 18 19 19 19 20 20 20 21 21 21 22 22 22 22 22 23 23 23 24 24 24 25 25 25 26 26 26 26 27 27 27 27 27 28 28 28 28 28 28 28 28 27 27 26 26
19 19 19 18 18 17 16 16 16 15 15 15 15 15 15 15 16 16 16 16 16 16 16 17 17 16 16 17 17 17 17 17 18 18 18 18 18 18 18 18 19 19 19 20 20 20 21 21 22 22 22 23 23 23 23 23 24 24 24 24 25 25 25 26 26 27 27 27 27 27 27 27 28 28 28 28 28 28 29 29 29 29 29 29 28 28
18 18 18 17 17 16 16 15 15 15 15 15 15 15 16 16 16 16 16 16 16 16 17 17 17 17 17 17 17 17 17 17 18 18 18 18 18 18 19 19 19 19 20 20 20 21 21 22 22 23 23 23 23 24 24 24 24 24 24 25 25 25 25 26 26 27 27 27 28 28 28 28 28 28 28 28 28 28 29 29 29 30 30 30 30 30
18 17 17 17 16 16 15 15 15 15 15 15 15 16 16 16 16 16 16 17 17 17 17 17 17 17 17 17 17 17 17 18 18 18 18 18 19 19 19 19 19 19 20 20 21 21 22 22 23 23 23 24 24 24 24 24 24 25 25 25 25 25 26 26 26 27 27 28 28 28 28 28 28 28 28 28 28 28 28 29 29 29 30 30 30 30
17 16 16 16 16 15 15 15 16 16 16 16 16 16 16 17 17 17 17 17 17 17 17 17 17 17 17 18 18 18 18 18 18 18 18 19 19 19 19 19 20 20 20 21 21 22 22 23 23 24 24 24 25 25 25 25 25 25 25 25 25 26 26 26 27 27 27 27 28 28 28 28 28 28 28 28 28 28 28 28 28 29 29 29 30 30
16 16 15 15 15 15 15 16 16 16 16 16 16 16 16 16 17 17 18 18 18 18 18 18 18 18 18 18 18 18 18 18 19 19 19 19 19 19 20 20 20 20 21 21 22 22 23 23 24 24 25 25 25 25 25 25 26 26 26 26 26 26 26 27 27 27 27 27 27 27 27 27 27 28 28 28 28 27 27 27 27 27 28 28 29 29
15 15 15 15 15 15 15 16 16 17 17 17 17 17 17 17 17 17 17 17 18 19 19 19 18 18 18 19 19 19 19 19 19 19 19 20 19 20 20 20 20 21 21 21 22 23 23 24 24 25 26 26 26 26 26 26 26 26 27 27 27 27 27 27 27 27 27 27 27 27 27 27 27 27 27 27 27 27 26 26 26 26 26 26 27 27
15 15 15 15 15 16 16 16 16 17 17 17 17 17 18 18 18 17 17 17 18 19 19 20 19 19 19 19 20 20 20 20 20 20 20 20 20 20 20 20 21 21 21 22 22 23 24 24 25 25 26 26 27 27 27 27 27 27 27 27 27 28 28 28 27 27 27 27 27 27 26 26 26 26 26 26 26 25 25 25 25 24 24 24 25 25
15 15 15 16 16 16 16 16 17 17 17 17 17 17 18 19 19 18 18 17 18 18 19 19 20 20 20 20 20 20 20 20 20 20 21 21 21 21 21 21 21 21 22 22 23 24 24 25 25 26 26 27 27 27 27 27 28 28 28 28 28 28 28 28 28 27 27 27 27 26 26 26 26 25 25 25 24 24 24 23 23 23 22 22 22 22
15 15 16 16 16 16 17 17 17 17 17 18 18 18 18 19 19 19 19 19 19 19 19 19 20 20 20 20 21 21 20 20 21 21 21 21 22 22 21 21 22 22 22 23 23 24 25 25 26 26 27 27 28 28 28 28 28 28 28 28 28 28 28 28 28 27 27 27 26 26 26 25 25 24 24 24 23 23 22 22 21 21 20 20 20 20
16 16 16 16 16 17 17 17 17 17 18 18 18 18 18 19 19 19 19 19 19 19 19 19 19 20 20 21 21 21 21 21 21 21 22 22 22 22 22 22 22 23 23 23 24 25 25 26 26 27 27 28 28 28 28 28 29 29 29 29 29 28 28 28 27 27 27 26 26 25 25 25 24 24 23 23 22 21 21 20 20 19 19 18 18 18
16 16 16 16 17 17 18 18 18 18 18 18 19 19 19 19 19 19 19 19 19 20 20 20 20 20 20 20 21 22 22 21 21 21 22 22 23 23 22 22 23 23 23 24 24 25 26 26 27 27 27 28 28 28 29 29 29 29 29 29 28 28 28 28 27 27 26 26 25 25 24 24 23 23 22 22 21 20 20 19 19 18 18 18 17 17
16 17 17 17 17 18 18 18 18 18 18 18 19 19 18 19 19 19 19 19 20 20 20 20 20 21 21 20 21 21 22 22 21 22 22 22 23 23 23 23 23 23 24 24 25 25 26 26 27 27 28 28 28 28 28 28 28 28 28 28 28 28 28 27 27 26 26 25 25 24 24 23 23 22 22 21 21 20 19 19 19 18 18 18 17 17
17 17 17 17 17 18 18 18 18 18 18 18 18 19 19 19 19 19 19 19 20 20 20 20 20 21 21 21 21 21 22 22 22 22 22 22 23 23 24 23 23 24 24 25 25 26 26 27 27 27 28 28 28 28 28 28 28 28 28 28 28 27 27 27 26 26 25 25 24 24 23 23 22 22 21 21 20 20 20 19 19 19 18 18 18 18
17 17 17 17 18 18 18 18 18 18 18 18 18 18 19 19 19 19 19 20 20 20 20 20 21 21 21 21 21 21 22 22 22 22 22 23 23 24 24 24 24 24 24 25 25 26 26 27 27 28 28 28 28 28 28 28 28 28 28 28 27 27 26 26 26 25 25 24 24 23 23 22 22 22 21 21 21 20 20 20 20 20 19 19 19 19
17 18 18 18 18 18 18 18 18 18 18 18 18 18 19 19 19 20 20 20 20 20 20 20 21 21 21 21 21 22 22 22 22 22 22 23 23 24 24 24 24 24 25 25 25 26 26 27 27 28 28 28 28 28 28 28 28 28 28 27 27 27 26 26 25 25 24 24 23 23 23 23 22 22 22 21 21 21 21 21 21 20 20 20 20 20
18 18 18 18 18 18 18 18 18 18 18 18 18 18 19 19 20 20 20 20 20 20 20 20 21 21 21 21 22 22 22 22 22 22 22 23 24 24 25 25 25 25 25 25 26 26 26 27 27 28 28 28 28 28 28 28 28 28 27 27 27 26 26 25 25 24 24 24 23 23 23 23 23 22 22 22 22 22 22 22 22 21 21 21 21 21
17 18 18 18 18 18 17 18 18 18 18 18 18 19 19 19 19 20 20 20 20 20 21 21 21 21 21 21 22 22 22 22 22 22 22 23 24 25 25 25 25 25 25 26 26 26 26 27 27 28 28 29 29 29 28 28 28 28 27 27 26 26 26 25 25 24 24 24 24 24 24 23 23 23 23 23 23 23 23 23 23 22 22 22 22 22
17 17 18 18 18 18 17 17 18 18 18 18 19 19 19 19 19 20 20 20 20 20 21 21 21 21 22 22 22 22 22 22 22 22 22 23 24 25 26 26 26 26 26 26 26 26 27 27 27 28 28 29 29 29 28 28 28 27 27 27 26 26 26 25 25 25 24 24 24 24 24 24 24 24 24 24 23 23 23 23 23 23 23 23 23 22
17 17 17 18 18 18 18 18 18 18 18 19 19 19 19 19 20 20 20 20 20 21 21 21 22 22 22 22 23 23 23 23 23 23 23 23 24 25 26 26 26 26 26 27 27 27 27 27 27 28 28 29 29 29 28 28 28 27 27 27 26 26 26 25 25 25 25 25 25 25 25 25 25 24 24 24 24 24 24 24 24 24 24 24 23 23
17 17 17 18 18 18 18 18 18 18 19 19 19 19 19 20 20 20 20 20 21 21 21 22 22 22 23 23 23 24 24 24 24 23 23 23 24 25 26 26 26 26 27 27 27 27 27 27 27 27 28 28 29 29 29 28 28 28 27 27 27 26 26 26 25 25 25 25 25 25 25 25 25 25 25 25 25 25 25 25 25 25 24 24 24 23
17 17 17 18 18 18 18 18 18 19 19 19 19 19 20 20 20 20 21 21 21 21 21 22 22 22 23 23 24 24 25 25 25 24 24 24 24 25 26 27 27 27 27 27 27 27 27 27 27 27 28 28 28 29 29 28 28 28 28 27 27 27 26 26 26 26 26 26 26 26 26 26 26 26 26 26 26 25 25 25 25 25 25 25 24 24
18 18 18 18 18 19 19 19 19 19 19 19 19 20 20 20 20 21 21 21 22 22 22 22 22 23 23 24 24 24 25 26 26 25 25 24 25 25 27 27 27 27 27 27 28 28 27 27 27 27 27 28 28 28 29 29 29 28 28 28 28 27 27 27 27 27 27 27 27 27 27 27 27 27 26 26 26 26 26 26 26 25 25 25 24 24
18 18 18 19 19 19 19 19 19 19 19 19 20 20 20 20 21 21 21 22 22 22 22 22 23 23 24 24 24 24 25 26 26 26 26 25 25 25 27 27 27 27 27 27 28 28 28 27 27 27 27 27 28 28 28 28 29 29 29 28 28 28 28 28 27 27 27 27 27 27 27 27 27 27 27 27 27 26 26 26 26 26 26 25 25 24
19 19 19 19 19 19 19 20 20 20 20 20 20 20 20 21 21 21 21 22 22 23 23 23 23 23 24 24 25 25 26 26 26 27 27 26 25 26 27 27 27 27 27 27 28 28 28 28 28 28 28 28 27 28 28 28 28 29 29 29 29 29 29 28 28 28 28 28 28 28 28 28 28 27 27 27 27 27 27 27 27 26 26 26 25 25
19 20 20 20 20 20 20 20 20 20 20 20 20 21 21 21 21 21 22 22 23 23 23 23 24 24 24 24 25 26 26 26 27 27 27 26 26 27 27 28 28 28 28 28 28 28 28 28 28 28 28 28 28 28 28 28 28 28 29 29 29 29 29 29 29 29 29 29 28 28 28 28 28 28 28 28 27 27 27 27 27 27 26 26 26 25
20 20 20 20 20 20 20 21 21 21 21 21 21 21 22 22 22 22 22 23 23 23 23 24 24 24 25 25 25 26 26 27 27 28 27 27 26 27 28 28 28 28 28 28 27 28 28 28 29 29 29 29 29 29 29 28 28 28 28 29 29 29 29 30 30 30 30 29 29 29 29 29 28 28 28 28 28 28 27 27 27 27 27 26 26 26
20 20 20 21 21 21 21 21 21 21 21 22 22 22 22 22 22 23 23 23 23 23 23 24 24 25 25 25 25 25 26 26 28 28 28 27 27 28 28 28 28 29 29 28 27 27 27 28 28 28 29 29 30 30 30 29 29 29 28 29 29 29 30 30 30 30 30 30 30 30 29 29 29 29 28 28 28 28 28 28 28 27 27 27 26 26
20 21 21 21 21 21 21 22 22 22 22 22 22 23 23 23 23 23 23 23 24 24 24 24 25 25 26 26 26 26 26 27 27 28 28 27 27 28 29 28 28 29 29 29 28 28 27 27 27 28 28 29 29 30 30 30 30 30 29 29 29 29 30 30 30 30 31 31 31 30 30 30 29 29 29 28 28 28 28 28 28 28 28 27 27 27
21 21 21 21 22 22 22 22 22 22 22 23 23 23 23 23 24 24 24 24 24 24 24 25 25 26 26 27 27 27 27 27 27 28 28 28 28 28 29 29 29 29 29 29 29 29 28 28 28 28 28 28 29 30 31 31 31 31 31 31 30 30 30 30 30 30 31 31 31 31 31 30 30 30 29 29 29 29 29 29 29 29 28 28 28 28
21 21 22 22 22 22 22 22 23 23 23 23 23 23 24 24 24 24 24 24 25 25 25 25 25 26 26 27 27 28 28 28 28 28 28 28 28 28 29 29 29 29 29 29 29 29 29 29 28 28 28 28 29 29 30 31 31 31 32 32 32 32 32 31 31 30 30 30 31 31 31 31 31 30 30 30 29 29 29 29 29 29 29 29 29 29
22 22 22 22 23 23 23 23 23 23 23 23 24 24 24 24 24 24 25 25 25 25 26 26 26 26 26 26 27 27 28 29 29 29 29 29 28 29 29 29 29 29 29 29 29 29 29 29 29 28 28 28 28 29 30 30 31 31 32 33 33 34 33 33 32 31 31 31 31 31 31 31 31 31 30 30 30 30 30 30 30 30 30 30 30 30
22 22 23 23 23 23 24 24 24 24 24 24 24 24 24 24 25 25 25 25 26 26 26 27 27 27 27 27 27 27 28 29 29 29 29 29 29 29 29 29 30 30 29 29 29 29 29 29 29 29 28 28 28 29 29 30 30 31 32 32 33 34 35 35 34 33 32 32 31 31 31 31 31 31 31 31 30 30 30 30 30 30 31 31 31 31
23 23 23 24 24 24 24 24 24 24 24 24 25 25 25 25 25 25 26 26 26 26 27 27 27 28 28 28 28 28 28 29 29 30 30 30 30 29 29 29 30 30 30 29 29 29 29 29 29 29 29 29 28 28 29 29 30 30 31 32 33 34 34 35 35 35 34 34 33 32 31 31 31 31 31 31 31 31 31 31 31 31 31 31 31 31
23 23 24 24 24 24 24 25 25 25 25 25 25 25 26 26 26 26 26 27 27 27 27 27 28 28 28 28 29 29 29 29 30 30 30 30 30 30 30 30 30 30 30 30 30 29 29 29 29 29 29 29 29 29 29 29 29 29 30 31 32 32 33 34 35 35 35 35 34 33 32 32 31 31 31 31 31 31 31 31 31 31 31 31 32 32
23 24 24 24 25 25 25 25 25 25 25 25 25 26 26 26 27 27 27 27 27 27 28 28 28 28 29 29 29 29 30 30 30 30 30 30 30 30 30 30 30 30 30 30 30 30 29 29 29 29 29 29 29 29 29 29 29 29 30 30 31 31 32 33 34 35 35 35 35 34 33 33 32 31 31 31 31 30 31 31 31 31 31 31 32 32
23 23 24 24 25 25 25 25 25 25 25 26 26 26 26 27 27 27 27 27 28 28 28 28 29 29 29 29 30 30 30 30 30 30 30 30 30 30 30 30 30 30 30 30 30 30 30 29 29 29 29 29 29 28 28 28 29 29 29 29 29 30 31 32 33 34 34 35 35 35 34 33 32 31 31 30 30 30 30 30 31 31 31 31 31 31
23 23 24 24 25 25 25 25 25 25 26 26 26 26 27 27 27 27 27 28 28 28 28 29 29 30 30 30 30 30 30 30 30 30 30 30 30 30 30 30 30 30 30 30 29 29 29 29 29 29 29 29 29 28 28 28 29 29 29 29 29 29 30 30 31 32 33 34 34 34 34 34 33 32 31 30 30 30 30 30 30 30 31 31 31 31
23 23 24 24 25 25 25 25 26 26 26 26 26 26 26 27 27 27 27 27 28 28 29 29 29 30 30 31 31 31 31 31 30 30 30 30 30 30 30 30 30 29 29 29 29 29 29 29 29 29 29 29 29 28 28 28 29 29 29 29 29 29 29 29 30 31 32 32 33 33 33 33 32 32 31 30 29 29 29 29 29 30 30 30 30 30
23 24 24 25 25 25 26 26 26 26 26 26 26 26 27 27 27 27 27 27 28 28 29 29 30 30 30 30 31 31 31 31 31 30 30 30 30 30 30 30 29 29 29 29 29 29 29 29 29 29 29 29 28 28 28 28 28 29 29 29 29 28 28 29 29 30 30 31 32 32 32 32 32 31 30 30 29 28 28 28 28 29 29 29 29 30
25 25 25 26 26 26 26 26 27 27 27 27 27 27 27 27 27 27 28 28 28 29 29 30 30 30 30 30 30 30 30 30 30 30 30 30 30 30 29 29 29 29 29 28 28 28 28 29 29 29 29 29 28 28 28 28 28 28 28 29 29 28 28 28 29 29 29 30 30 31 31 32 31 31 30 29 29 28 27 27 27 27 28 28 28 29
26 26 26 27 27 27 27 27 27 27 27 27 27 27 28 28 28 28 28 28 29 29 29 30 30 30 30 30 30 30 29 29 30 30 30 30 30 30 29 29 29 29 28 28 28 28 28 28 28 28 29 28 28 28 28 28 28 28 28 28 28 28 28 28 28 28 28 29 29 30 31 31 31 31 30 29 28 28 27 27 26 26 26 27 27 27
27 27 28 28 28 28 27 28 28 28 28 28 28 28 28 28 28 28 28 29 29 29 29 30 30 29 29 30 30 29 29 29 29 29 30 30 30 30 30 29 29 28 28 28 28 28 28 27 27 28 28 28 28 28 28 28 28 28 28 28 28 28 28 28 28 28 28 28 29 29 30 30 30 30 30 29 28 28 27 27 26 26 26 26 26 26
28 28 29 28 28 28 28 28 28 28 28 28 28 28 28 28 28 28 29 29 29 29 29 30 30 29 29 29 29 29 29 29 29 29 29 30 30 30 30 29 29 28 28 28 28 28 27 27 27 27 27 27 27 27 28 28 28 28 28 28 27 27 27 27 27 28 28 28 28 29 29 30 30 30 30 29 29 28 27 27 26 26 26 25 25 25
29 29 29 29 28 28 28 28 28 27 27 27 28 28 28 28 28 28 28 29 29 29 30 30 30 30 29 29 29 29 29 28 29 29 29 29 29 29 29 29 29 29 28 28 28 28 27 27 27 27 27 27 27 27 27 28 28 28 28 27 27 27 27 27 27 27 27 28 28 29 29 29 29 29 29 29 29 28 27 27 27 26 26 25 25 25
28 28 28 28 28 28 28 28 27 27 27 27 27 27 28 28 28 28 28 29 29 30 30 30 30 30 29 29 29 29 29 28 29 29 29 29 29 29 29 29 29 29 29 29 28 28 28 27 27 27 27 27 28 27 27 27 27 27 27 27 27 27 27 26 26 27 27 27 28 28 28 29 29 29 29 29 28 28 27 26 26 26 26 25 25 25
28 28 28 28 27 28 28 28 28 28 27 27 27 27 28 28 28 29 29 29 30 30 30 30 30 29 29 29 29 28 28 28 28 29 29 29 29 29 29 29 29 29 29 29 29 28 28 28 27 27 27 27 27 27 27 26 26 26 26 27 27 27 26 26 26 26 26 26 26 27 27 28 28 28 28 28 27 27 26 25 25 25 25 25 25 25
27 27 27 27 27 28 28 28 28 28 28 28 28 28 28 28 28 29 29 30 30 30 30 30 30 29 29 28 28 28 28 28 28 28 28 29 29 29 29 29 29 29 29 29 29 29 28 28 27 27 27 27 27 26 26 25 25 25 25 25 26 26 26 25 25 25 24 25 25 25 25 26 26 26 26 26 26 25 24 24 23 23 23 23 24 24
Wind_Direction
290 289 288 287 287 287 288 289 289 289 289 290 290 291 292 292 292 291 291 291 291 291 291 292 292 293 293 294 295 295 296 297 298 298 299 300 300 301 302 303 303 304 304 305 305 306 306 306 307 306 306 306 306 306 306 306 305 305 304 304 303 302 302 300 299 298 296 295 295 294 293 292 291 290 290 289 288 287 286 285 285 284 283 282 282 281
288 288 287 287 287 287 288 288 288 289 289 290 290 290 291 291 291 291 291 292 292 292 293 293 293 294 294 294 295 295 296 296 297 297 298 299 299 300 301 301 302 303 303 304 305 305 306 306 306 306 306 306 306 306 306 306 306 305 305 304 304 303 303 301 300 299 298 297 296 295 293 292 290 290 289 288 287 286 286 285 285 284 282 281 281 279
287 286 286 286 287 287 288 288 288 288 289 290 290 290 290 290 290 290 290 291 292 292 293 294 294 295 296 296 296 297 297 297 298 298 298 299 299 300 300 301 302 302 303 304 305 305 306 306 306 306 306 306 307 307 307 307 307 306 306 306 305 304 304 302 301 300 299 298 297 296 294 292 290 289 288 287 286 285 285 284 284 282 281 280 279 278
285 285 286 286 286 287 287 288 288 288 289 289 289 289 289 289 288 288 289 290 290 291 292 293 294 295 296 296 297 297 298 299 299 299 300 300 300 301 301 302 302 303 304 305 306 306 306 307 307 307 307 307 307 308 308 308 308 307 307 306 306 305 304 302 301 300 299 298 297 296 294 292 291 289 287 286 285 284 283 283 282 281 280 279 278 276
283 284 285 285 286 286 286 287 288 289 289 289 289 289 289 288 288 288 288 289 289 290 291 292 293 294 294 295 295 296 297 298 298 299 299 300 301 301 302 302 303 304 305 305 305 306 306 306 306 306 306 307 307 307 308 308 307 307 307 306 305 304 303 301 300 299 298 297 296 295 294 292 291 289 288 286 285 283 282 281 280 280 279 278 276 275
282 283 284 284 284 285 286 287 288 288 289 289 289 289 288 288 288 288 288 289 289 290 290 291 291 292 292 293 293 294 295 295 296 297 297 298 299 300 300 301 302 303 303 304 304 304 304 304 304 304 305 305 305 306 306 306 306 306 305 304 303 302 301 299 298 297 296 296 295 294 293 292 291 290 288 286 285 283 282 280 279 278 277 276 275 274
281 282 283 283 284 285 286 287 288 288 288 288 288 288 289 288 288 288 288 289 289 289 290 290 291 291 291 292 292 292 293 293 294 295 295 296 297 298 298 299 300 301 301 302 302 302 302 302 302 302 303 303 304 304 305 305 305 304 303 303 301 300 299 297 296 295 295 294 294 293 293 292 291 290 289 287 286 284 282 280 278 277 276 275 274 273
280 281 282 283 284 285 286 287 288 287 287 288 288 288 288 288 289 289 289 289 289 289 289 289 290 291 291 291 292 292 292 293 293 294 294 295 296 296 297 298 299 300 300 300 300 300 300 301 301 301 302 303 303 304 304 304 304 303 302 301 300 299 297 296 295 295 294 293 293 292 292 291 290 289 289 288 286 285 283 281 279 277 276 275 274 273
279 280 281 282 284 286 287 288 288 288 288 288 288 288 288 287 288 288 289 290 290 290 289 289 290 291 291 292 292 292 292 293 293 293 294 294 295 296 297 298 298 299 299 299 299 299 300 300 301 301 302 303 303 304 304 304 304 303 302 301 300 299 298 297 296 295 294 294 293 292 291 290 290 289 288 287 286 285 284 282 280 278 277 275 274 273
279 280 281 283 284 286 287 288 287 287 288 288 288 288 288 287 287 287 288 289 290 290 290 291 291 291 291 292 292 292 293 293 293 294 294 294 294 295 296 297 298 298 298 298 299 299 300 300 301 301 302 303 304 304 304 304 304 303 302 301 301 300 299 299 298 297 296 294 294 292 291 290 289 288 287 287 286 285 284 283 281 280 278 276 275 273
279 281 282 284 285 286 286 287 287 287 287 288 288 289 288 288 287 287 287 288 288 289 290 292 292 292 292 292 292 293 293 294 294 294 295 295 295 296 296 297 298 298 298 298 299 299 300 300 301 302 302 303 304 304 304 304 304 304 303 302 302 301 301 300 299 298 297 296 294 293 292 291 289 288 287 287 286 285 284 283 282 281 279 278 276 275
280 282 283 285 285 286 286 286 286 286 287 287 288 288 288 289 289 289 289 288 288 288 289 291 292 293 293 293 293 293 294 294 295 295 295 296 296 297 297 298 298 298 299 299 299 300 300 301 302 302 303 304 304 304 305 305 305 304 304 304 303 303 302 301 300 299 298 296 295 294 292 291 290 289 288 287 286 285 284 283 282 281 280 278 277 276
281 283 284 285 285 285 285 285 285 286 286 287 287 287 288 289 289 290 290 290 290 289 290 291 292 293 294 294 294 294 294 295 295 295 296 296 297 298 298 299 299 299 300 300 301 301 302 302 303 303 304 304 305 305 305 306 306 306 306 305 305 304 303 302 301 300 299 297 296 294 293 292 290 289 288 287 286 285 284 283 282 281 280 279 278 276
283 284 285 285 285 285 284 284 285 285 286 286 286 287 287 288 289 290 291 291 291 291 292 292 293 293 294 295 295 296 296 296 296 297 297 297 298 298 299 299 300 300 301 301 302 302 303 303 304 304 304 305 305 306 306 306 307 307 306 306 306 305 304 303 302 300 299 297 296 294 293 292 291 289 289 288 287 286 285 284 283 281 280 279 278 277
284 285 285 285 285 284 284 284 284 285 285 286 287 287 288 288 289 290 291 291 292 293 294 294 295 295 295 296 296 297 297 297 298 298 298 299 299 299 300 301 301 301 302 302 303 303 303 304 304 305 305 305 306 306 307 307 307 307 307 307 306 306 305 303 302 301 299 297 296 294 293 291 290 289 288 287 287 286 285 284 283 282 281 280 278 277
285 285 285 285 284 284 284 284 285 285 286 287 287 288 289 289 290 290 292 293 293 294 295 296 296 296 297 297 297 297 298 298 299 299 299 299 300 300 301 301 302 302 303 303 304 304 304 304 305 305 305 305 306 306 307 307 307 307 307 307 306 305 304 303 302 300 298 297 295 293 292 291 290 289 288 287 286 286 285 284 284 283 281 280 279 277
285 285 284 284 284 284 284 285 285 286 286 287 288 289 290 290 291 292 293 294 295 296 296 297 297 297 297 298 297 297 298 299 300 300 300 300 300 301 301 302 303 303 303 304 304 305 305 305 305 305 306 306 306 307 307 308 308 308 307 307 306 305 304 302 301 299 297 295 294 292 291 289 288 288 287 287 286 286 285 285 284 283 282 281 279 278
284 284 284 284 284 284 284 285 286 287 287 288 289 290 290 292 292 293 294 295 296 297 298 298 298 298 298 299 298 298 299 300 300 301 301 301 301 301 302 303 304 304 305 305 305 305 306 306 306 306 306 306 307 307 308 308 308 308 307 306 306 304 303 301 300 298 296 294 292 291 289 288 287 286 286 286 285 285 285 284 284 283 282 281 279 278
284 284 284 284 284 284 285 286 286 287 288 289 290 291 292 293 294 295 296 297 298 298 299 299 299 299 299 300 299 299 300 300 301 302 302 302 302 302 303 304 304 305 305 306 306 306 307 307 307 307 307 307 307 308 308 308 308 308 307 306 305 304 302 300 298 296 294 292 290 288 287 286 285 285 285 285 285 285 284 284 283 282 281 280 279 277
284 284 284 284 284 285 285 286 287 288 289 290 291 292 293 294 295 296 297 298 299 299 300 300 300 300 300 300 300 301 301 302 302 303 303 303 303 303 304 305 305 306 307 307 307 307 308 308 308 307 307 308 308 308 309 309 309 308 307 306 305 303 301 299 297 295 292 290 288 287 285 284 284 284 284 284 284 283 283 282 282 281 280 279 278 276
284 284 284 285 285 286 286 287 288 289 290 291 292 293 294 295 296 297 298 299 300 300 300 300 300 301 301 301 301 301 302 303 304 304 304 304 304 304 305 306 306 307 307 307 308 308 308 309 308 308 308 308 309 309 309 309 309 308 307 306 304 302 300 298 296 293 291 288 287 285 284 283 283 283 282 282 282 282 282 281 281 280 279 278 277 276
284 284 285 285 286 287 288 288 289 290 291 293 293 294 295 296 297 298 299 299 300 300 301 301 301 302 302 302 302 302 302 303 304 305 305 305 305 305 305 306 307 308 308 308 308 309 309 309 309 309 309 309 309 309 310 310 309 308 307 306 304 302 299 297 294 292 289 287 285 284 283 282 282 282 282 281 281 281 280 280 279 279 278 277 276 275
285 285 285 286 287 288 288 289 290 291 292 294 294 295 296 297 298 299 299 300 300 301 301 302 302 303 303 303 303 303 303 304 304 305 306 306 306 306 306 307 308 309 308 308 309 309 310 310 310 310 309 309 310 310 310 310 309 308 307 305 303 301 299 296 293 290 288 286 284 283 282 281 281 281 281 280 280 280 279 279 279 278 277 277 276 275
286 286 286 287 287 288 290 290 292 292 293 294 295 296 297 298 298 299 300 300 301 301 302 302 303 303 303 304 304 304 304 305 305 306 307 308 307 307 307 307 308 309 309 309 309 309 310 310 310 310 310 310 310 310 310 310 309 308 307 305 303 300 298 295 292 289 287 285 283 282 281 280 280 280 280 280 279 279 279 278 278 277 277 276 276 275
287 287 287 288 289 290 291 292 292 293 294 295 296 297 297 298 299 300 300 301 301 302 302 303 303 303 304 304 305 305 305 306 307 307 308 308 308 308 308 308 309 309 309 309 309 309 310 310 310 310 310 310 310 310 310 309 309 308 306 304 302 300 297 294 291 289 286 284 282 281 280 280 279 279 279 279 278 278 278 277 277 277 276 276 275 274
288 288 288 289 290 291 291 292 293 294 294 295 296 297 297 298 299 300 301 301 301 302 303 303 303 303 304 304 305 305 306 306 307 307 308 309 309 309 308 308 309 309 309 309 309 309 310 310 310 310 310 310 310 309 309 309 308 307 305 304 301 299 296 294 291 288 286 284 282 281 280 279 278 278 278 278 277 277 277 277 276 276 275 275 274 274
288 288 289 289 290 291 291 292 293 293 294 295 296 296 297 298 299 300 300 301 301 302 303 303 303 303 304 304 304 305 305 306 306 307 307 309 309 309 308 308 309 309 309 309 309 309 310 310 310 310 310 309 309 309 308 308 307 306 305 303 301 298 296 293 290 288 286 283 282 280 279 278 278 277 277 277 277 277 276 276 275 275 274 274 273 273
288 289 289 290 290 290 291 292 292 293 293 294 295 296 296 298 298 299 299 300 301 302 302 303 303 303 303 303 304 304 305 305 306 306 307 308 309 309 308 308 308 309 309 309 309 309 310 310 310 310 309 309 309 308 308 307 306 305 303 302 300 298 295 293 290 288 285 283 281 280 279 278 277 277 276 276 276 276 275 275 274 274 273 273 272 272
288 288 289 289 290 290 290 291 292 292 293 294 295 295 296 297 298 298 299 299 300 301 302 302 303 303 303 303 304 305 305 305 305 306 307 308 309 308 307 308 308 308 308 309 309 309 310 310 310 310 310 309 309 308 307 306 305 304 302 301 299 297 295 292 290 288 285 283 281 280 278 277 276 276 275 275 275 275 274 274 274 273 272 272 271 270
288 288 289 289 289 290 290 291 292 293 293 294 295 295 296 297 298 298 299 300 301 301 302 302 303 303 303 304 304 305 305 305 305 306 307 308 308 307 307 307 307 307 308 308 309 309 310 310 310 310 309 309 309 308 307 306 304 303 301 299 298 296 294 292 290 287 285 283 281 279 278 277 276 275 275 274 274 274 273 273 273 272 272 271 270 269
287 288 288 289 289 290 291 291 292 293 294 295 295 296 296 297 298 298 299 300 301 301 302 302 303 303 303 304 304 304 305 305 305 305 306 307 307 307 306 307 307 307 307 308 309 309 309 309 309 308 308 308 308 307 307 305 304 302 301 298 296 294 293 291 289 287 285 283 281 279 277 276 275 274 274 274 273 273 273 272 272 271 271 270 269 268
287 288 288 289 289 290 291 292 293 293 294 295 295 296 296 297 298 299 299 300 301 302 302 302 303 303 303 304 304 304 304 304 304 305 305 307 307 306 306 307 307 307 307 308 308 309 309 309 308 308 308 307 307 307 306 306 304 303 301 298 296 293 291 289 287 285 284 282 280 278 277 276 275 274 273 273 272 272 271 271 271 270 269 268 267 266
287 288 288 289 289 290 291 291 292 293 294 294 295 296 296 297 298 299 300 300 301 301 302 302 302 303 303 304 304 304 304 304 304 304 305 306 306 306 306 306 307 307 307 308 308 309 309 309 309 308 308 307 306 306 306 305 304 303 301 299 297 294 291 289 286 284 282 281 279 278 276 275 274 273 272 271 271 270 270 269 269 269 268 267 266 264
288 288 288 289 289 290 290 291 292 293 293 294 295 295 296 297 298 299 300 300 301 301 302 302 302 303 303 303 304 304 304 304 304 304 305 305 306 306 306 306 306 307 307 308 308 308 309 309 309 308 308 307 306 305 305 304 304 303 301 300 298 296 293 290 286 284 281 280 278 277 276 274 273 272 271 270 269 269 268 268 267 267 266 265 264 263
289 289 289 289 290 290 291 291 292 293 293 294 295 295 296 297 298 299 299 300 300 301 301 302 302 303 303 303 303 304 304 304 304 304 304 305 305 306 306 306 306 306 307 307 307 307 308 308 308 308 308 307 306 305 304 304 303 302 301 299 298 296 294 292 289 285 282 280 278 276 275 274 273 272 271 269 269 268 267 266 266 266 265 264 263 262
290 290 290 290 291 291 292 292 293 293 294 295 295 296 297 297 298 298 299 300 300 301 301 302 303 303 303 304 304 304 304 303 303 304 304 304 305 306 306 306 306 306 307 307 307 307 307 307 308 307 307 307 306 305 304 303 302 301 300 299 297 296 295 293 291 288 286 283 280 277 275 274 272 271 270 269 268 267 266 266 265 265 264 264 263 262
291 291 291 292 292 292 293 293 294 295 295 296 296 297 297 298 298 299 299 300 300 301 301 302 303 303 304 304 304 304 304 304 304 304 304 304 305 306 307 307 306 307 307 307 307 307 307 308 308 308 307 307 307 306 305 304 302 301 299 298 297 296 294 294 292 291 288 286 283 280 278 275 273 272 270 269 268 267 266 266 265 264 264 264 263 263
292 292 293 293 293 294 294 295 295 296 296 297 297 297 298 298 298 299 300 300 301 301 302 302 303 303 304 304 304 304 304 304 304 304 304 305 305 306 307 307 307 307 308 308 308 308 308 308 308 308 308 308 307 307 306 304 303 301 299 298 297 295 294 293 292 291 289 288 286 284 281 278 276 274 272 270 269 268 267 266 265 265 264 264 264 263
294 294 294 294 294 295 295 296 296 297 297 297 297 298 298 298 299 299 300 300 301 302 302 303 303 304 304 304 304 304 304 304 304 304 305 305 306 306 307 308 308 308 308 309 309 309 310 309 309 309 309 309 309 308 307 306 304 302 300 299 298 296 295 293 292 290 290 289 288 286 284 281 279 276 274 272 271 269 268 267 266 266 265 265 264 264
295 295 295 295 295 295 296 296 296 297 297 297 297 297 297 298 298 299 300 300 301 302 303 303 304 304 304 305 304 304 304 304 304 304 305 305 306 307 307 308 308 309 309 309 310 310 311 311 311 310 310 310 310 310 309 307 305 304 302 300 298 296 295 293 292 290 289 288 288 287 285 284 282 279 277 275 273 272 270 269 268 267 266 266 266 265
297 297 296 296 296 296 297 297 297 297 297 297 297 297 297 297 298 299 299 301 301 302 303 304 305 305 305 305 305 305 305 304 304 305 305 306 307 307 308 309 309 309 310 310 310 310 311 311 312 312 312 311 311 311 310 308 307 305 304 302 299 297 296 293 291 289 288 287 287 286 286 285 284 283 281 278 276 274 272 271 270 269 268 267 267 267
299 298 298 298 298 298 298 297 297 297 297 297 297 297 297 297 298 298 299 300 301 302 303 304 304 305 305 305 305 305 304 304 305 305 305 306 307 307 308 309 309 310 310 310 311 311 311 312 312 312 312 312 312 312 311 310 308 307 306 304 302 300 298 295 292 290 288 287 287 286 286 286 286 285 283 281 279 277 275 273 272 271 270 269 268 268
300 300 299 299 299 299 298 298 298 298 297 297 297 297 297 297 298 299 299 300 301 302 302 303 303 304 304 304 304 304 304 304 304 305 305 306 307 307 308 309 309 310 310 311 311 311 312 312 313 313 313 313 313 313 312 311 309 308 307 306 304 302 299 297 294 292 290 288 287 287 286 286 286 286 285 284 282 280 278 276 274 273 272 271 270 269
300 300 300 300 300 299 299 299 298 298 298 298 298 298 298 298 298 299 299 300 300 301 301 302 303 303 303 303 303 303 303 303 304 304 305 305 306 307 308 309 309 310 311 311 312 312 313 313 314 314 313 314 314 313 312 311 310 309 308 307 305 303 300 298 296 293 291 289 288 287 286 286 286 286 285 285 283 282 280 278 277 275 274 273 272 271
300 300 300 300 300 299 299 299 298 298 298 298 298 298 298 298 298 298 298 298 299 299 300 301 301 302 303 302 302 302 302 303 303 303 304 305 306 307 308 309 310 311 311 312 312 313 314 314 314 314 314 314 314 313 312 311 310 309 308 307 306 304 302 300 298 295 293 291 289 288 287 286 286 286 285 285 285 284 283 281 280 278 277 275 274 273
300 300 300 300 300 299 299 298 298 298 298 298 298 297 297 297 297 297 297 297 297 298 299 300 301 302 302 302 302 302 302 302 303 304 304 305 306 307 308 309 310 311 312 313 313 314 314 315 315 315 315 314 314 312 311 311 310 308 307 306 305 304 302 301 299 297 295 293 291 289 287 286 286 285 285 285 285 284 284 283 282 280 279 278 277 275
300 300 300 300 299 299 299 298 298 298 298 298 297 297 296 296 296 296 296 296 297 298 299 300 301 302 302 302 302 302 302 302 303 304 304 305 306 307 308 309 310 311 312 313 314 315 315 315 315 315 315 314 313 312 311 310 309 308 306 305 304 303 302 300 299 298 297 295 293 291 289 288 287 286 284 284 283 283 283 282 282 281 280 279 278 277
300 300 300 299 299 299 298 298 298 298 298 298 297 297 296 296 296 296 296 297 298 299 300 301 302 302 302 302 302 302 302 303 303 304 305 305 306 307 308 309 310 311 312 313 314 315 316 316 316 316 315 315 314 312 311 310 309 308 306 305 304 303 301 301 300 299 298 297 295 294 292 291 289 288 286 285 284 282 282 281 280 280 279 278 277 276
299 299 299 299 298 298 299 299 299 298 298 298 297 297 296 296 296 296 297 298 299 300 301 301 302 302 302 302 301 302 302 303 303 304 305 306 306 307 308 309 310 312 313 313 314 315 316 317 317 317 316 315 314 313 312 311 310 308 307 305 304 303 302 301 301 300 299 299 298 297 296 295 293 292 290 289 287 284 283 281 280 279 278 277 276 275
297 298 298 298 299 299 299 299 299 299 299 298 298 297 297 297 297 297 298 299 300 300 301 301 301 301 301 301 301 301 302 303 304 304 305 306 307 308 309 309 310 311 312 313 314 315 316 317 317 317 316 315 314 313 312 311 310 308 306 305 304 303 303 302 302 301 301 300 299 299 298 297 297 296 295 293 291 289 287 285 282 280 279 277 276 275
296 297 298 298 299 300 300 300 300 299 299 298 297 297 297 297 297 298 298 299 300 301 301 301 301 300 300 300 300 301 302 303 304 304 305 306 307 308 309 310 311 312 313 313 314 315 316 317 317 317 316 315 313 313 312 311 310 308 306 304 304 303 303 303 303 302 302 301 301 300 300 299 298 298 297 296 295 294 292 289 286 284 281 279 277 276
Height
3095 3095 3094 3094 3094 3093 3093 3093 3092 3092 3091 3091 3090 3090 3089 3089 3089 3088 3088 3087 3087 3087 3087 3087 3086 3086 3085 3085 3084 3084 3083 3083 3083 3082 3082 3081 3081 3080 3079 3079 3078 3078 3077 3077 3076 3075 3075 3074 3074 3073 3073 3072 3072 3071 3071 3070 3069 3069 3068 3067 3067 3066 3066 3065 3065 3064 3064 3063 3063 3062 3062 3062 3061 3061 3060 3060 3060 3059 3059 3059 3059 3059 3058 3058 3058 3058
3093 3093 3092 3092 3092 3092 3092 3091 3091 3090 3090 3089 3089 3088 3088 3087 3087 3087 3087 3086 3086 3086 3085 3085 3085 3084 3084 3083 3083 3082 3082 3082 3081 3081 3080 3080 3079 3079 3078 3077 3077 3076 3076 3075 3074 3074 3073 3073 3072 3072 3071 3071 3070 3069 3069 3068 3068 3067 3067 3066 3065 3065 3064 3064 3063 3062 3062 3061 3061 3061 3060 3060 3059 3059 3058 3058 3058 3057 3057 3057 3057 3057 3057 3057 3057 3056
3091 3091 3091 3091 3091 3090 3090 3090 3089 3089 3088 3088 3087 3087 3087 3086 3086 3086 3085 3085 3084 3084 3084 3083 3083 3083 3082 3082 3081 3081 3081 3080 3080 3079 3079 3078 3078 3077 3077 3076 3076 3075 3074 3073 3073 3072 3072 3071 3071 3070 3069 3069 3068 3067 3067 3067 3066 3065 3065 3064 3063 3063 3062 3062 3061 3061 3060 3060 3059 3059 3058 3058 3057 3057 3057 3056 3056 3056 3055 3055 3055 3055 3054 3054 3054 3054
3089 3089 3089 3089 3089 3089 3088 3088 3087 3087 3087 3087 3086 3086 3086 3085 3085 3084 3084 3084 3083 3083 3082 3082 3082 3082 3081 3081 3080 3079 3079 3078 3078 3078 3077 3077 3076 3076 3075 3074 3074 3073 3072 3072 3071 3070 3070 3069 3068 3068 3067 3067 3066 3066 3065 3064 3064 3063 3063 3062 3062 3061 3060 3060 3059 3058 3058 3057 3057 3057 3056 3056 3055 3055 3054 3054 3054 3054 3053 3053 3053 3052 3052 3052 3052 3052
3088 3088 3088 3088 3087 3087 3087 3087 3086 3086 3085 3085 3085 3084 3084 3084 3084 3083 3083 3082 3082 3082 3082 3081 3081 3080 3080 3079 3079 3078 3078 3077 3077 3076 3076 3075 3075 3074 3073 3073 3072 3072 3071 3070 3069 3069 3068 3067 3067 3066 3065 3065 3064 3064 3063 3063 3062 3062 3061 3060 3060 3059 3058 3058 3057 3057 3056 3056 3055 3055 3054 3054 3053 3053 3052 3052 3052 3052 3051 3051 3051 3051 3050 3050 3050 3050
3087 3086 3086 3086 3086 3086 3085 3085 3085 3084 3084 3084 3083 3083 3083 3082 3082 3082 3082 3082 3081 3081 3080 3080 3079 3079 3079 3078 3078 3077 3077 3076 3076 3075 3074 3074 3073 3073 3072 3072 3071 3070 3069 3069 3068 3067 3067 3066 3065 3065 3064 3063 3063 3062 3062 3062 3061 3060 3060 3059 3058 3058 3057 3056 3056 3055 3054 3054 3053 3052 3052 3052 3051 3051 3050 3050 3049 3049 3049 3049 3049 3048 3048 3048 3048 3048
3085 3085 3085 3085 3084 3084 3084 3083 3083 3083 3082 3082 3082 3082 3082 3081 3081 3081 3080 3080 3080 3079 3079 3079 3078 3078 3077 3077 3077 3076 3076 3075 3074 3074 3073 3073 3072 3072 3071 3070 3070 3069 3068 3067 3067 3066 3065 3065 3064 3063 3063 3062 3062 3061 3061 3060 3060 3059 3058 3058 3057 3056 3056 3055 3054 3053 3052 3052 3051 3051 3050 3050 3049 3048 3048 3047 3047 3047 3047 3047 3046 3046 3046 3046 3046 3046
3083 3083 3083 3083 3083 3083 3082 3082 3082 3081 3081 3081 3081 3081 3080 3080 3080 3079 3079 3079 3078 3078 3077 3077 3077 3077 3076 3076 3075 3075 3074 3074 3073 3072 3072 3072 3071 3070 3070 3069 3068 3068 3067 3066 3066 3065 3064 3063 3063 3062 3062 3061 3061 3060 3060 3059 3058 3058 3057 3056 3056 3055 3054 3053 3052 3052 3051 3050 3049 3049 3048 3047 3047 3047 3046 3046 3045 3045 3044 3044 3044 3044 3044 3043 3043 3043
3082 3082 3082 3082 3081 3081 3081 3081 3080 3080 3080 3079 3079 3079 3079 3079 3078 3078 3078 3077 3077 3076 3076 3076 3076 3075 3075 3074 3073 3073 3073 3072 3072 3071 3071 3070 3070 3069 3068 3068 3067 3067 3066 3065 3064 3064 3063 3062 3062 3061 3060 3060 3059 3059 3058 3057 3057 3056 3055 3054 3054 3053 3052 3052 3051 3050 3049 3048 3048 3047 3046 3046 3045 3044 3044 3043 3043 3042 3042 3042 3042 3042 3041 3041 3041 3041
3081 3080 3080 3080 3080 3080 3079 3079 3079 3078 3078 3078 3078 3078 3077 3077 3077 3077 3077 3076 3076 3075 3074 3074 3074 3074 3073 3072 3072 3072 3071 3071 3070 3070 3069 3068 3068 3067 3067 3067 3066 3065 3064 3064 3063 3062 3062 3061 3060 3059 3059 3058 3057 3057 3056 3056 3055 3054 3053 3052 3052 3051 3050 3049 3049 3048 3047 3047 3046 3045 3044 3044 3043 3042 3042 3042 3041 3041 3040 3040 3040 3039 3039 3039 3039 3039
3079 3079 3079 3078 3078 3078 3078 3077 3077 3077 3077 3077 3077 3076 3076 3076 3075 3075 3075 3075 3074 3073 3073 3072 3072 3072 3072 3071 3070 3070 3069 3069 3068 3068 3067 3067 3066 3066 3065 3065 3064 3063 3063 3062 3061 3061 3060 3059 3058 3057 3057 3056 3056 3055 3054 3053 3053 3052 3051 3050 3050 3049 3048 3047 3047 3046 3045 3044 3044 3043 3042 3042 3041 3041 3040 3039 3039 3038 3038 3038 3037 3037 3037 3037 3037 3037
3078 3077 3077 3077 3077 3077 3076 3076 3076 3076 3075 3075 3075 3075 3074 3074 3073 3073 3073 3073 3073 3072 3072 3071 3071 3070 3070 3069 3068 3068 3067 3067 3067 3066 3065 3065 3064 3064 3063 3063 3062 3062 3061 3060 3060 3059 3058 3057 3057 3056 3055 3054 3053 3053 3052 3051 3050 3050 3049 3048 3047 3047 3046 3045 3044 3043 3043 3042 3041 3041 3040 3040 3039 3038 3038 3037 3037 3037 3036 3036 3036 3035 3035 3035 3035 3035
3077 3076 3076 3076 3075 3075 3075 3075 3074 3074 3074 3073 3073 3073 3073 3072 3072 3072 3071 3071 3071 3070 3070 3070 3069 3068 3068 3067 3067 3066 3066 3065 3065 3064 3063 3063 3062 3062 3062 3061 3060 3060 3059 3058 3058 3057 3056 3055 3055 3054 3053 3052 3051 3050 3050 3049 3048 3047 3046 3046 3045 3044 3043 3042 3042 3041 3040 3040 3039 3038 3038 3037 3037 3037 3036 3036 3035 3035 3034 3034 3034 3034 3033 3033 3033 3033
3075 3075 3075 3074 3074 3074 3073 3073 3073 3073 3072 3072 3072 3072 3071 3071 3070 3070 3069 3069 3069 3068 3068 3068 3067 3067 3066 3065 3065 3064 3064 3063 3063 3062 3062 3061 3061 3060 3060 3059 3058 3058 3057 3057 3056 3055 3054 3053 3052 3052 3051 3050 3049 3048 3047 3047 3046 3045 3044 3043 3042 3042 3041 3040 3039 3039 3038 3037 3037 3036 3036 3035 3035 3034 3034 3034 3033 3033 3033 3032 3032 3032 3032 3032 3032 3032
3074 3073 3073 3073 3073 3072 3072 3072 3072 3071 3071 3071 3070 3070 3070 3069 3069 3068 3068 3067 3067 3067 3066 3066 3065 3065 3064 3064 3063 3062 3062 3062 3061 3061 3060 3059 3058 3058 3057 3057 3057 3056 3055 3055 3054 3053 3052 3051 3050 3050 3049 3048 3047 3046 3045 3044 3043 3042 3042 3041 3040 3039 3038 3038 3037 3037 3036 3035 3035 3034 3034 3033 3033 3032 3032 3032 3032 3031 3031 3031 3031 3031 3030 3030 3030 3030
3072 3072 3072 3072 3071 3071 3071 3070 3070 3070 3069 3069 3069 3068 3068 3067 3067 3067 3066 3066 3065 3065 3064 3064 3063 3063 3062 3062 3061 3060 3060 3059 3059 3059 3058 3057 3057 3056 3055 3055 3055 3054 3053 3052 3052 3051 3050 3049 3048 3047 3047 3046 3045 3044 3043 3042 3041 3041 3040 3039 3038 3037 3036 3036 3035 3034 3034 3033 3033 3032 3032 3031 3031 3031 3030 3030 3030 3030 3029 3029 3029 3029 3029 3029 3029 3029
3071 3071 3071 3070 3070 3070 3069 3069 3068 3068 3068 3067 3067 3067 3066 3066 3065 3065 3064 3064 3063 3063 3062 3062 3062 3061 3061 3060 3060 3059 3058 3057 3057 3057 3056 3056 3055 3054 3053 3053 3052 3052 3052 3051 3050 3049 3048 3047 3046 3045 3044 3043 3043 3042 3041 3040 3039 3038 3037 3037 3036 3035 3034 3033 3033 3032 3032 3031 3031 3030 3030 3029 3029 3029 3028 3028 3028 3028 3028 3028 3027 3027 3027 3027 3027 3027
3070 3069 3069 3069 3068 3068 3067 3067 3067 3067 3066 3066 3066 3065 3065 3064 3063 3063 3062 3062 3062 3061 3061 3060 3060 3059 3059 3058 3058 3057 3056 3056 3055 3055 3054 3053 3053 3052 3051 3051 3051 3050 3049 3049 3048 3047 3046 3045 3044 3043 3042 3042 3041 3040 3039 3038 3037 3037 3036 3035 3034 3033 3032 3032 3031 3030 3030 3029 3029 3028 3028 3027 3027 3027 3027 3027 3027 3026 3026 3026 3026 3026 3026 3026 3026 3026
3068 3068 3067 3067 3067 3067 3066 3066 3065 3065 3065 3064 3064 3063 3063 3062 3062 3061 3061 3060 3060 3059 3059 3058 3058 3057 3057 3056 3056 3055 3055 3054 3053 3053 3052 3052 3051 3050 3049 3049 3048 3048 3047 3047 3046 3045 3044 3043 3042 3041 3040 3039 3038 3038 3037 3036 3035 3034 3033 3032 3032 3031 3030 3029 3029 3028 3028 3027 3027 3027 3026 3026 3026 3025 3025 3025 3025 3025 3024 3024 3024 3024 3024 3024 3024 3024
3067 3066 3066 3066 3065 3065 3065 3064 3064 3063 3063 3063 3062 3062 3061 3061 3060 3059 3059 3058 3058 3057 3057 3057 3056 3056 3055 3055 3054 3053 3052 3052 3052 3051 3050 3049 3049 3048 3047 3047 3046 3046 3045 3045 3044 3043 3042 3041 3040 3039 3038 3037 3036 3036 3035 3034 3033 3032 3032 3031 3030 3029 3028 3027 3027 3026 3026 3025 3025 3025 3024 3024 3024 3023 3023 3023 3023 3023 3023 3023 3022 3022 3022 3022 3022 3022
3065 3065 3064 3064 3064 3063 3063 3063 3062 3062 3062 3061 3061 3060 3059 3059 3058 3058 3057 3057 3056 3056 3055 3055 3054 3054 3053 3053 3052 3052 3051 3050 3050 3049 3048 3047 3047 3046 3045 3045 3044 3044 3043 3042 3042 3041 3040 3039 3038 3037 3036 3035 3034 3033 3032 3032 3031 3030 3029 3028 3027 3027 3026 3026 3025 3024 3024 3023 3023 3023 3022 3022 3022 3022 3022 3021 3021 3021 3021 3021 3021 3021 3021 3021 3021 3020
3064 3063 3063 3062 3062 3062 3062 3062 3061 3060 3060 3059 3059 3058 3058 3057 3057 3056 3056 3055 3054 3054 3053 3053 3052 3052 3051 3051 3050 3049 3049 3048 3048 3047 3047 3046 3045 3044 3043 3042 3042 3042 3041 3040 3039 3039 3038 3037 3036 3035 3034 3033 3032 3031 3030 3030 3029 3028 3027 3026 3026 3025 3024 3023 3023 3022 3022 3022 3021 3021 3021 3020 3020 3020 3020 3019 3019 3019 3019 3019 3019 3019 3019 3019 3018 3018
3062 3062 3062 3061 3061 3060 3060 3060 3059 3059 3058 3058 3057 3057 3056 3056 3055 3054 3054 3053 3053 3052 3052 3051 3050 3050 3049 3049 3048 3047 3047 3046 3046 3045 3045 3044 3043 3042 3041 3041 3040 3039 3038 3038 3037 3037 3036 3035 3034 3032 3032 3031 3030 3029 3028 3027 3027 3026 3025 3024 3023 3023 3022 3022 3021 3021 3020 3020 3019 3019 3019 3018 3018 3018 3017 3017 3017 3017 3017 3017 3017 3017 3017 3017 3017 3017
3061 3061 3060 3059 3059 3059 3058 3058 3057 3057 3057 3056 3056 3055 3054 3054 3053 3053 3052 3052 3051 3051 3050 3049 3049 3048 3047 3047 3046 3045 3044 3044 3043 3043 3042 3042 3041 3040 3039 3038 3038 3037 3036 3036 3035 3034 3034 3033 3032 3031 3030 3028 3027 3027 3026 3025 3024 3024 3023 3022 3021 3021 3020 3019 3019 3018 3018 3017 3017 3017 3017 3016 3016 3016 3015 3015 3015 3015 3015 3015 3014 3014 3014 3014 3014 3014
3059 3059 3058 3058 3057 3057 3057 3056 3056 3055 3055 3054 3054 3053 3052 3052 3052 3051 3050 3050 3049 3049 3048 3047 3047 3046 3045 3045 3044 3043 3042 3042 3041 3041 3040 3040 3039 3038 3037 3037 3036 3035 3034 3033 3033 3032 3032 3031 3030 3029 3027 3027 3025 3024 3024 3023 3022 3022 3021 3020 3019 3018 3018 3017 3017 3017 3016 3016 3015 3015 3015 3014 3014 3014 3013 3013 3013 3012 3012 3012 3012 3012 3012 3012 3012 3012
3057 3057 3057 3056 3056 3055 3055 3055 3054 3054 3053 3053 3052 3052 3051 3050 3050 3049 3048 3048 3047 3047 3046 3046 3045 3044 3043 3043 3042 3041 3040 3040 3039 3038 3038 3038 3037 3036 3035 3034 3034 3033 3032 3032 3031 3030 3029 3029 3028 3027 3026 3025 3023 3022 3022 3021 3020 3019 3018 3017 3017 3016 3016 3015 3015 3014 3014 3013 3013 3013 3012 3012 3012 3012 3011 3011 3011 3011 3010 3010 3010 3010 3010 3010 3010 3010
3056 3055 3055 3055 3054 3054 3053 3053 3052 3052 3052 3051 3050 3050 3049 3049 3048 3047 3047 3046 3045 3045 3044 3044 3043 3042 3042 3041 3040 3040 3039 3038 3037 3037 3036 3036 3035 3034 3033 3032 3032 3031 3030 3029 3028 3028 3027 3026 3026 3025 3024 3023 3022 3021 3020 3018 3017 3017 3016 3015 3014 3014 3013 3013 3012 3012 3012 3011 3011 3011 3010 3010 3010 3009 3009 3009 3008 3008 3008 3008 3008 3008 3008 3008 3008 3008
3054 3054 3053 3053 3052 3052 3052 3051 3051 3050 3050 3049 3049 3048 3047 3047 3047 3046 3045 3044 3044 3043 3042 3042 3041 3041 3040 3039 3038 3038 3037 3036 3035 3034 3034 3034 3033 3032 3032 3031 3030 3029 3028 3027 3027 3026 3025 3024 3023 3022 3021 3021 3020 3019 3018 3017 3016 3015 3014 3013 3012 3012 3011 3010 3010 3009 3009 3009 3008 3008 3008 3007 3007 3007 3007 3007 3006 3006 3006 3006 3006 3006 3006 3006 3006 3006
3052 3052 3052 3051 3051 3050 3050 3049 3049 3049 3048 3047 3047 3047 3046 3045 3045 3044 3043 3043 3042 3041 3041 3040 3039 3039 3038 3037 3037 3036 3035 3034 3033 3032 3032 3032 3031 3030 3029 3029 3028 3027 3026 3026 3025 3024 3023 3022 3021 3019 3018 3018 3017 3017 3016 3015 3014 3012 3012 3011 3010 3009 3008 3008 3007 3007 3007 3006 3006 3006 3005 3005 3005 3005 3004 3004 3004 3004 3003 3003 3003 3003 3003 3003 3003 3004
3051 3050 3050 3049 3049 3049 3048 3048 3047 3047 3046 3046 3045 3045 3044 3043 3043 3042 3042 3041 3040 3040 3039 3038 3037 3037 3036 3036 3035 3034 3033 3032 3031 3030 3030 3030 3029 3028 3027 3027 3026 3025 3024 3023 3023 3022 3021 3020 3019 3017 3016 3015 3014 3014 3013 3012 3011 3010 3009 3008 3007 3007 3006 3005 3005 3004 3004 3004 3003 3003 3003 3002 3002 3002 3002 3002 3002 3001 3001 3001 3001 3001 3001 3001 3001 3001
3049 3049 3048 3048 3047 3047 3047 3046 3046 3045 3044 3044 3043 3043 3042 3042 3041 3040 3040 3039 3038 3038 3037 3036 3036 3035 3034 3034 3033 3032 3032 3031 3030 3028 3028 3027 3027 3026 3025 3024 3023 3023 3022 3021 3021 3020 3019 3018 3017 3016 3014 3013 3012 3011 3010 3009 3009 3008 3007 3006 3005 3004 3004 3003 3002 3002 3001 3001 3001 3000 3000 3000 3000 3000 2999 2999 2999 2999 2999 2998 2998 2998 2998 2998 2999 2999
3048 3047 3047 3046 3046 3045 3045 3044 3044 3043 3042 3042 3042 3041 3040 3040 3039 3038 3037 3037 3037 3036 3035 3034 3034 3033 3032 3032 3031 3030 3030 3029 3028 3027 3026 3026 3025 3024 3023 3022 3022 3020 3020 3019 3018 3017 3017 3016 3015 3014 3012 3011 3010 3008 3007 3007 3006 3005 3004 3004 3003 3002 3001 3001 3000 2999 2999 2998 2998 2998 2997 2997 2997 2997 2997 2997 2997 2996 2996 2996 2996 2996 2996 2996 2996 2997
3047 3046 3045 3045 3044 3044 3043 3042 3042 3042 3041 3040 3040 3039 3038 3038 3037 3036 3036 3035 3034 3034 3033 3032 3032 3031 3030 3029 3029 3028 3027 3027 3026 3025 3024 3023 3023 3022 3021 3020 3019 3018 3017 3016 3016 3015 3014 3013 3012 3011 3010 3009 3007 3006 3005 3004 3003 3002 3001 3000 3000 2999 2998 2998 2997 2997 2996 2996 2995 2995 2995 2995 2994 2994 2994 2994 2994 2994 2994 2993 2993 2993 2993 2993 2994 2994
3045 3044 3044 3043 3042 3042 3042 3041 3040 3040 3039 3038 3038 3037 3037 3036 3035 3034 3034 3033 3032 3032 3031 3030 3030 3029 3028 3027 3027 3026 3025 3025 3024 3023 3022 3022 3021 3020 3019 3018 3017 3016 3015 3014 3013 3012 3011 3011 3010 3009 3008 3007 3006 3004 3002 3001 3000 2999 2998 2997 2996 2996 2995 2995 2994 2994 2994 2993 2993 2992 2992 2992 2992 2992 2992 2992 2991 2991 2991 2991 2991 2991 2991 2991 2991 2992
3043 3042 3042 3042 3041 3040 3040 3039 3039 3038 3037 3037 3036 3035 3035 3034 3033 3032 3032 3031 3030 3029 3029 3028 3027 3027 3026 3026 3025 3024 3023 3022 3022 3021 3020 3019 3018 3018 3017 3016 3015 3014 3013 3012 3011 3010 3009 3008 3007 3006 3005 3004 3003 3002 3001 2999 2998 2997 2995 2994 2993 2992 2991 2991 2991 2991 2991 2990 2990 2990 2989 2989 2989 2989 2989 2989 2989 2989 2988 2988 2988 2988 2988 2988 2988 2989
3041 3040 3040 3039 3039 3038 3038 3037 3037 3036 3036 3035 3034 3033 3032 3032 3031 3030 3030 3029 3028 3027 3027 3026 3025 3024 3024 3023 3022 3022 3021 3020 3019 3018 3017 3017 3016 3015 3015 3014 3013 3012 3011 3010 3009 3008 3007 3006 3005 3004 3003 3002 3001 3000 2998 2997 2996 2994 2993 2992 2990 2989 2988 2987 2987 2987 2987 2987 2987 2987 2987 2987 2986 2986 2986 2986 2986 2986 2986 2986 2986 2986 2986 2986 2986 2986
3039 3038 3038 3037 3037 3036 3036 3035 3035 3034 3034 3033 3032 3031 3031 3030 3029 3028 3027 3027 3026 3025 3024 3024 3023 3022 3022 3021 3020 3020 3019 3018 3017 3016 3015 3014 3014 3013 3012 3011 3010 3009 3008 3007 3006 3005 3004 3003 3002 3001 3000 2999 2998 2997 2996 2995 2993 2992 2991 2989 2988 2987 2985 2984 2983 2983 2983 2983 2983 2983 2983 2983 2983 2983 2983 2983 2983 2983 2983 2983 2983 2983 2983 2983 2983 2983
3037 3037 3036 3035 3035 3034 3034 3033 3033 3032 3032 3031 3030 3029 3029 3028 3027 3026 3026 3025 3024 3023 3022 3022 3021 3020 3020 3019 3018 3017 3017 3016 3015 3014 3013 3012 3011 3011 3010 3009 3008 3007 3006 3005 3004 3002 3002 3001 3000 2999 2998 2997 2996 2995 2993 2992 2991 2990 2988 2987 2986 2984 2983 2982 2981 2980 2979 2979 2979 2979 2979 2980 2980 2980 2980 2980 2980 2980 2980 2980 2980 2980 2980 2980 2980 2981
3035 3035 3034 3033 3033 3032 3032 3031 3031 3030 3030 3029 3028 3027 3027 3026 3025 3024 3023 3023 3022 3021 3021 3020 3019 3018 3018 3017 3016 3015 3014 3013 3012 3012 3011 3010 3009 3008 3007 3007 3006 3004 3003 3002 3001 3000 2999 2998 2997 2996 2995 2994 2993 2992 2991 2989 2988 2987 2986 2985 2983 2982 2981 2979 2978 2977 2977 2976 2976 2975 2975 2976 2976 2976 2977 2977 2977 2977 2977 2977 2977 2977 2977 2977 2977 2977
3034 3033 3032 3032 3031 3030 3030 3029 3029 3028 3027 3027 3026 3025 3025 3024 3023 3022 3022 3021 3020 3019 3019 3018 3017 3017 3016 3015 3014 3013 3012 3011 3010 3009 3008 3007 3006 3006 3005 3004 3003 3002 3001 3000 2999 2998 2997 2995 2994 2993 2992 2991 2990 2989 2988 2987 2985 2984 2983 2982 2981 2980 2979 2977 2976 2975 2974 2973 2972 2972 2972 2972 2972 2972 2973 2973 2974 2974 2974 2974 2974 2974 2974 2974 2974 2975
3032 3031 3030 3030 3029 3028 3028 3027 3027 3026 3025 3025 3024 3023 3022 3022 3021 3020 3020 3019 3018 3017 3017 3016 3015 3014 3013 3012 3012 3011 3010 3009 3008 3007 3006 3005 3004 3003 3002 3002 3001 3000 2999 2997 2997 2995 2994 2993 2992 2991 2990 2988 2987 2987 2985 2984 2982 2981 2980 2979 2978 2977 2977 2975 2974 2972 2971 2970 2970 2969 2969 2968 2969 2969 2969 2970 2970 2971 2971 2971 2971 2971 2971 2971 2971 2972
3030 3029 3028 3028 3027 3026 3026 3025 3024 3024 3023 3022 3022 3021 3020 3020 3019 3018 3018 3017 3016 3015 3015 3014 3013 3012 3012 3010 3009 3008 3007 3007 3006 3005 3004 3003 3002 3001 3000 2999 2998 2997 2996 2995 2994 2993 2992 2991 2990 2988 2987 2986 2985 2984 2982 2981 2980 2979 2977 2977 2976 2975 2974 2973 2972 2970 2969 2968 2967 2967 2966 2966 2966 2966 2966 2967 2967 2967 2968 2968 2968 2968 2968 2968 2968 2968
3028 3027 3027 3026 3025 3024 3024 3023 3022 3022 3021 3021 3020 3019 3018 3017 3017 3016 3016 3015 3014 3013 3013 3012 3011 3010 3009 3008 3007 3006 3005 3004 3003 3002 3001 3001 3000 2999 2998 2997 2996 2995 2994 2993 2992 2991 2990 2989 2987 2986 2985 2983 2982 2982 2980 2979 2977 2976 2975 2974 2973 2972 2971 2970 2969 2968 2967 2966 2965 2964 2964 2963 2963 2963 2963 2963 2964 2964 2964 2965 2965 2965 2965 2965 2965 2965
3026 3026 3025 3024 3023 3022 3022 3021 3020 3020 3019 3018 3018 3017 3016 3015 3015 3014 3013 3013 3012 3011 3011 3010 3009 3008 3007 3006 3005 3004 3003 3002 3001 3000 2999 2998 2997 2997 2996 2995 2994 2993 2992 2991 2990 2989 2988 2987 2985 2984 2982 2981 2980 2979 2977 2977 2975 2974 2973 2972 2971 2970 2969 2968 2967 2966 2965 2964 2963 2962 2961 2961 2960 2960 2960 2960 2961 2961 2961 2961 2962 2962 2962 2962 2962 2962
3024 3024 3023 3022 3021 3021 3020 3019 3018 3017 3017 3016 3016 3015 3014 3013 3012 3012 3011 3010 3010 3009 3008 3007 3006 3005 3004 3003 3002 3002 3001 3000 2999 2998 2997 2996 2995 2994 2994 2993 2992 2991 2990 2989 2988 2987 2986 2984 2983 2982 2981 2979 2978 2977 2975 2974 2973 2972 2971 2969 2968 2967 2966 2965 2964 2963 2963 2962 2961 2960 2959 2958 2958 2958 2958 2958 2958 2958 2958 2958 2958 2959 2959 2959 2959 2959
3022 3022 3021 3020 3019 3018 3017 3017 3016 3015 3015 3014 3013 3012 3012 3011 3010 3009 3008 3008 3007 3006 3005 3004 3004 3003 3002 3001 3000 2999 2998 2998 2997 2996 2995 2994 2993 2992 2991 2990 2989 2988 2987 2987 2986 2985 2984 2982 2981 2980 2978 2977 2976 2975 2973 2972 2971 2970 2968 2967 2966 2965 2964 2963 2962 2961 2960 2960 2959 2958 2957 2957 2956 2956 2956 2956 2956 2956 2956 2956 2956 2956 2956 2956 2956 2956
3020 3019 3019 3018 3017 3016 3015 3015 3014 3013 3012 3012 3011 3010 3009 3008 3007 3007 3006 3005 3005 3004 3003 3002 3001 3000 2999 2998 2998 2997 2996 2995 2995 2994 2993 2992 2991 2990 2989 2988 2987 2986 2985 2984 2983 2982 2981 2980 2979 2978 2977 2975 2974 2972 2971 2970 2969 2967 2966 2965 2964 2963 2962 2961 2960 2959 2958 2957 2957 2956 2955 2954 2954 2953 2953 2953 2953 2953 2953 2953 2953 2953 2953 2953 2953 2953
3017 3017 3016 3016 3015 3014 3013 3012 3012 3011 3010 3009 3008 3008 3007 3006 3006 3005 3004 3003 3002 3002 3001 3000 2999 2998 2997 2996 2995 2994 2994 2993 2992 2992 2991 2990 2989 2987 2987 2986 2985 2984 2983 2982 2981 2980 2979 2978 2977 2976 2974 2973 2972 2970 2969 2968 2967 2965 2964 2963 2962 2961 2960 2959 2958 2957 2956 2955 2954 2954 2953 2952 2952 2951 2951 2951 2951 2951 2951 2951 2951 2951 2951 2950 2950 2950
3015 3015 3014 3013 3013 3012 3011 3010 3010 3009 3008 3007 3006 3006 3005 3004 3003 3003 3002 3001 3000 3000 2999 2998 2997 2996 2995 2994 2993 2992 2992 2991 2990 2989 2988 2987 2986 2985 2984 2983 2982 2982 2981 2980 2979 2978 2977 2976 2975 2973 2972 2971 2969 2968 2967 2966 2965 2963 2962 2961 2960 2959 2958 2957 2956 2955 2954 2953 2952 2952 2951 2950 2949 2949 2948 2948 2948 2948 2949 2949 2949 2948 2948 2948 2948 2948
3013 3012 3012 3011 3010 3010 3009 3008 3007 3007 3006 3005 3004 3003 3003 3002 3001 3001 3000 2999 2998 2997 2997 2996 2995 2994 2993 2992 2991 2990 2989 2988 2987 2987 2986 2985 2984 2983 2982 2981 2980 2979 2978 2977 2977 2976 2975 2974 2973 2972 2970 2969 2967 2966 2965 2964 2963 2962 2960 2959 2958 2957 2956 2955 2954 2954 2953 2952 2951 2950 2949 2948 2947 2947 2946 2945 2945 2945 2946 2946 2946 2946 2946 2946 2945 2945
3010 3010 3009 3009 3008 3007 3007 3006 3005 3004 3003 3003 3002 3001 3001 3000 2999 2998 2997 2997 2996 2995 2994 2993 2992 2992 2991 2990 2989 2988 2987 2986 2985 2984 2983 2982 2982 2981 2980 2979 2978 2977 2976 2975 2974 2973 2973 2972 2971 2970 2969 2967 2966 2965 2963 2962 2961 2960 2959 2957 2956 2955 2954 2953 2953 2952 2951 2950 2949 2948 2947 2947 2946 2945 2944 2943 2943 2943 2943 2943 2943 2943 2943 2943 2943 2943